| time (UTC) | temp F | wind direction | speed MPH | gust MPH | rain 1hr in | rain 24hr in | rain mn in | humidity % | barometer mb |
| 20260509051251 | 49 | 123 | 1.0 | 3.0 | 0.00 | 0.00 | 0.00 | 90 | 1015.5 |
| 20260509050801 | 49 | 123 | 1.0 | 2.0 | 0.00 | 0.00 | 0.00 | 89 | 1015.5 |
| 20260509050252 | 49 | 123 | 0.0 | 2.0 | 0.00 | 0.00 | 0.00 | 89 | 1015.5 |
| 20260509045754 | 49 | 123 | 1.0 | 3.0 | 0.00 | 0.00 | 0.00 | 90 | 1015.4 |
| 20260509045253 | 49 | 123 | 2.0 | 3.0 | 0.00 | 0.00 | 0.00 | 90 | 1015.3 |
| 20260509044751 | 49 | 123 | 3.0 | 3.0 | 0.00 | 0.00 | 0.00 | 91 | 1015.3 |
| 20260509044251 | 49 | 134 | 2.0 | 2.0 | 0.00 | 0.00 | 0.00 | 91 | 1015.3 |
| 20260509043751 | 49 | 115 | 2.0 | 3.0 | 0.00 | 0.00 | 0.00 | 90 | 1015.2 |
| 20260509043252 | 49 | 138 | 1.0 | 2.0 | 0.00 | 0.00 | 0.00 | 90 | 1015.2 |
| 20260509042800 | 49 | 138 | 0.0 | 0.0 | 0.00 | 0.00 | 0.00 | 90 | 1015.3 |
| 20260509042254 | 49 | 138 | 0.0 | 2.0 | 0.00 | 0.00 | 0.00 | 90 | 1015.1 |
| 20260509041751 | 49 | 138 | 1.0 | 2.0 | 0.00 | 0.00 | 0.00 | 90 | 1015.1 |
| 20260509041251 | 49 | 138 | 0.0 | 3.0 | 0.00 | 0.00 | 0.00 | 91 | 1015.1 |
| 20260509040751 | 49 | 138 | 2.0 | 3.0 | 0.00 | 0.00 | 0.00 | 91 | 1015.2 |
| 20260509040251 | 49 | 138 | 2.0 | 4.0 | 0.00 | 0.00 | 0.00 | 91 | 1015.2 |
| 20260509035800 | 49 | 130 | 3.0 | 4.0 | 0.00 | 0.00 | 0.00 | 91 | 1015.1 |
| 20260509035251 | 49 | 139 | 3.0 | 3.0 | 0.00 | 0.00 | 0.00 | 90 | 1015.1 |
| 20260509034751 | 49 | 139 | 1.0 | 3.0 | 0.00 | 0.00 | 0.00 | 90 | 1015.0 |
| 20260509034251 | 50 | 156 | 1.0 | 2.0 | 0.00 | 0.00 | 0.00 | 91 | 1015.0 |
| 20260509033800 | 50 | 121 | 0.0 | 2.0 | 0.00 | 0.00 | 0.00 | 91 | 1015.0 |
| 20260509033254 | 49 | 122 | 1.0 | 2.0 | 0.00 | 0.00 | 0.00 | 91 | 1015.2 |
| 20260509032754 | 49 | 141 | 1.0 | 3.0 | 0.00 | 0.00 | 0.00 | 91 | 1015.1 |
| 20260509032254 | 49 | 144 | 3.0 | 4.0 | 0.00 | 0.00 | 0.00 | 92 | 1015.2 |
| 20260509031751 | 49 | 140 | 1.0 | 4.0 | 0.00 | 0.00 | 0.00 | 91 | 1015.2 |
| 20260509031251 | 50 | 153 | 2.0 | 3.0 | 0.00 | 0.00 | 0.00 | 91 | 1015.1 |
| 20260509030751 | 50 | 122 | 2.0 | 2.0 | 0.00 | 0.00 | 0.00 | 91 | 1015.2 |
| 20260509030251 | 50 | 121 | 0.0 | 2.0 | 0.00 | 0.00 | 0.00 | 92 | 1015.1 |
| 20260509025754 | 50 | 122 | 1.0 | 3.0 | 0.00 | 0.00 | 0.00 | 91 | 1015.1 |
| 20260509025254 | 50 | 122 | 2.0 | 3.0 | 0.00 | 0.00 | 0.00 | 91 | 1015.1 |
| 20260509024751 | 50 | 122 | 1.0 | 2.0 | 0.00 | 0.00 | 0.00 | 91 | 1015.0 |
| 20260509024257 | 50 | 122 | 0.0 | 2.0 | 0.00 | 0.00 | 0.00 | 91 | 1015.0 |
| 20260509023800 | 50 | 122 | 1.0 | 3.0 | 0.00 | 0.00 | 0.00 | 91 | 1015.0 |
| 20260509023251 | 50 | 122 | 0.0 | 0.0 | 0.00 | 0.00 | 0.00 | 92 | 1015.0 |
| 20260509022754 | 50 | 122 | 0.0 | 2.0 | 0.00 | 0.00 | 0.00 | 92 | 1015.0 |
| 20260509022251 | 50 | 122 | 2.0 | 3.0 | 0.00 | 0.00 | 0.00 | 91 | 1015.1 |
| 20260509021801 | 50 | 122 | 3.0 | 3.0 | 0.00 | 0.00 | 0.00 | 91 | 1015.1 |
| 20260509021332 | 50 | 122 | 1.0 | 2.0 | 0.00 | 0.00 | 0.00 | 90 | 1015.0 |
| 20260509020752 | 51 | 122 | 2.0 | 2.0 | 0.00 | 0.00 | 0.00 | 91 | 1014.9 |
| 20260509020251 | 51 | 122 | 0.0 | 0.0 | 0.00 | 0.00 | 0.00 | 91 | 1015.0 |
| 20260509015751 | 51 | 122 | 0.0 | 1.0 | 0.00 | 0.00 | 0.00 | 91 | 1015.0 |
| 20260509015251 | 51 | 122 | 1.0 | 2.0 | 0.00 | 0.00 | 0.00 | 92 | 1015.1 |
| 20260509014751 | 51 | 122 | 2.0 | 3.0 | 0.00 | 0.00 | 0.00 | 91 | 1015.2 |
| 20260509014251 | 50 | 122 | 1.0 | 4.0 | 0.00 | 0.00 | 0.00 | 91 | 1015.1 |
| 20260509013751 | 50 | 122 | 3.0 | 4.0 | 0.00 | 0.00 | 0.00 | 90 | 1015.2 |
| 20260509013300 | 51 | 138 | 1.0 | 3.0 | 0.00 | 0.00 | 0.00 | 90 | 1015.2 |
| 20260509012754 | 51 | 134 | 1.0 | 2.0 | 0.00 | 0.00 | 0.00 | 90 | 1015.2 |
| 20260509012251 | 51 | 70 | 0.0 | 2.0 | 0.00 | 0.00 | 0.00 | 91 | 1015.1 |
| 20260509011751 | 51 | 71 | 2.0 | 3.0 | 0.00 | 0.00 | 0.00 | 92 | 1015.1 |
| 20260509011251 | 51 | 117 | 2.0 | 4.0 | 0.00 | 0.00 | 0.00 | 90 | 1015.1 |
| 20260509010757 | 51 | 139 | 3.0 | 3.0 | 0.00 | 0.00 | 0.00 | 90 | 1015.2 |
| 20260509010254 | 51 | 101 | 0.0 | 0.0 | 0.00 | 0.00 | 0.00 | 90 | 1015.2 |
| 20260509005758 | 52 | 101 | 0.0 | 0.0 | 0.00 | 0.00 | 0.00 | 90 | 1015.1 |
| 20260509005300 | 52 | 101 | 0.0 | 1.0 | 0.00 | 0.00 | 0.00 | 91 | 1015.2 |
| 20260509004751 | 51 | 101 | 0.0 | 3.0 | 0.00 | 0.00 | 0.00 | 91 | 1015.3 |
| 20260509004251 | 51 | 101 | 1.0 | 3.0 | 0.00 | 0.00 | 0.00 | 91 | 1015.4 |
| 20260509003754 | 51 | 114 | 1.0 | 3.0 | 0.00 | 0.00 | 0.00 | 90 | 1015.3 |
| 20260509003251 | 51 | 86 | 1.0 | 1.0 | 0.00 | 0.00 | 0.00 | 89 | 1015.3 |
| 20260509002754 | 51 | 86 | 0.0 | 1.0 | 0.00 | 0.00 | 0.00 | 89 | 1015.2 |
| 20260509002254 | 52 | 86 | 1.0 | 2.0 | 0.00 | 0.00 | 0.00 | 90 | 1015.2 |
| 20260509001755 | 52 | 86 | 0.0 | 2.0 | 0.00 | 0.00 | 0.00 | 91 | 1015.2 |
| 20260509001300 | 51 | 86 | 1.0 | 2.0 | 0.00 | 0.00 | 0.00 | 91 | 1015.2 |
| 20260509000751 | 51 | 148 | 0.0 | 2.0 | 0.00 | 0.00 | 0.00 | 90 | 1015.3 |
| 20260509000251 | 51 | 148 | 1.0 | 5.0 | 0.00 | 0.00 | 0.00 | 89 | 1015.3 |
| 20260508235755 | 51 | 150 | 3.0 | 4.0 | 0.00 | 0.00 | 0.00 | 89 | 1015.3 |
| 20260508235257 | 52 | 163 | 1.0 | 4.0 | 0.00 | 0.00 | 0.00 | 89 | 1015.2 |
| 20260508234754 | 52 | 159 | 2.0 | 4.0 | 0.00 | 0.00 | 0.00 | 89 | 1015.2 |
| 20260508234255 | 52 | 148 | 3.0 | 3.0 | 0.00 | 0.00 | 0.00 | 89 | 1015.2 |
| 20260508233751 | 52 | 158 | 2.0 | 3.0 | 0.00 | 0.00 | 0.00 | 88 | 1015.2 |
| 20260508233257 | 52 | 133 | 0.0 | 3.0 | 0.00 | 0.00 | 0.00 | 88 | 1015.2 |
| 20260508232754 | 52 | 133 | 2.0 | 2.0 | 0.00 | 0.00 | 0.00 | 88 | 1015.2 |
| 20260508232251 | 52 | 133 | 1.0 | 2.0 | 0.00 | 0.00 | 0.00 | 88 | 1015.2 |
| 20260508231751 | 53 | 133 | 0.0 | 1.0 | 0.00 | 0.00 | 0.00 | 87 | 1015.3 |
| 20260508231257 | 53 | 133 | 1.0 | 3.0 | 0.00 | 0.00 | 0.00 | 87 | 1015.3 |
| 20260508230751 | 53 | 133 | 1.0 | 3.0 | 0.00 | 0.00 | 0.00 | 87 | 1015.3 |
| 20260508230254 | 53 | 133 | 1.0 | 3.0 | 0.00 | 0.00 | 0.00 | 87 | 1015.3 |
| 20260508225754 | 53 | 133 | 2.0 | 3.0 | 0.00 | 0.00 | 0.00 | 87 | 1015.4 |
| 20260508225251 | 53 | 128 | 2.0 | 3.0 | 0.00 | 0.00 | 0.00 | 87 | 1015.5 |
| 20260508224754 | 53 | 121 | 0.0 | 1.0 | 0.00 | 0.00 | 0.00 | 87 | 1015.5 |
| 20260508224251 | 53 | 121 | 1.0 | 3.0 | 0.00 | 0.00 | 0.00 | 87 | 1015.5 |
| 20260508223757 | 53 | 128 | 3.0 | 3.0 | 0.00 | 0.00 | 0.00 | 87 | 1015.5 |
| 20260508223251 | 53 | 128 | 1.0 | 3.0 | 0.00 | 0.00 | 0.00 | 86 | 1015.5 |
| 20260508222751 | 53 | 133 | 3.0 | 3.0 | 0.00 | 0.00 | 0.00 | 86 | 1015.5 |
| 20260508222251 | 54 | 133 | 3.0 | 4.0 | 0.00 | 0.00 | 0.00 | 85 | 1015.5 |
| 20260508221751 | 54 | 150 | 3.0 | 3.0 | 0.00 | 0.00 | 0.00 | 84 | 1015.5 |
| 20260508221308 | 54 | 140 | 2.0 | 2.0 | 0.00 | 0.00 | 0.00 | 84 | 1015.5 |
| 20260508220754 | 55 | 140 | 0.0 | 2.0 | 0.00 | 0.00 | 0.00 | 85 | 1015.4 |
| 20260508220254 | 54 | 128 | 0.0 | 1.0 | 0.00 | 0.00 | 0.00 | 85 | 1015.3 |
| 20260508215757 | 54 | 128 | 0.0 | 2.0 | 0.00 | 0.00 | 0.00 | 85 | 1015.3 |
| 20260508215257 | 54 | 128 | 2.0 | 5.0 | 0.00 | 0.00 | 0.00 | 84 | 1015.3 |
| 20260508214754 | 55 | 137 | 4.0 | 4.0 | 0.00 | 0.00 | 0.00 | 84 | 1015.2 |
| 20260508214252 | 55 | 159 | 4.0 | 4.0 | 0.00 | 0.00 | 0.00 | 83 | 1015.3 |
| 20260508213752 | 55 | 123 | 0.0 | 1.0 | 0.00 | 0.00 | 0.00 | 83 | 1015.2 |
| 20260508213254 | 55 | 123 | 0.0 | 2.0 | 0.00 | 0.00 | 0.00 | 83 | 1015.3 |
| 20260508212757 | 55 | 139 | 1.0 | 2.0 | 0.00 | 0.00 | 0.00 | 83 | 1015.2 |
| 20260508212254 | 56 | 146 | 1.0 | 3.0 | 0.00 | 0.00 | 0.00 | 82 | 1015.2 |
| 20260508211751 | 56 | 176 | 1.0 | 4.0 | 0.00 | 0.00 | 0.00 | 81 | 1015.2 |
| 20260508211300 | 56 | 150 | 1.0 | 2.0 | 0.00 | 0.00 | 0.00 | 81 | 1015.1 |
| 20260508210754 | 57 | 134 | 2.0 | 2.0 | 0.00 | 0.00 | 0.00 | 80 | 1015.1 |
| 20260508210252 | 57 | 105 | 0.0 | 1.0 | 0.00 | 0.00 | 0.00 | 79 | 1015.1 |
| 20260508205751 | 57 | 104 | 0.0 | 1.0 | 0.00 | 0.00 | 0.00 | 79 | 1015.1 |
| 20260508205251 | 57 | 105 | 0.0 | 3.0 | 0.00 | 0.00 | 0.00 | 79 | 1015.1 |
| 20260508204800 | 57 | 97 | 2.0 | 3.0 | 0.00 | 0.00 | 0.00 | 79 | 1015.2 |
| 20260508204251 | 57 | 141 | 1.0 | 2.0 | 0.00 | 0.00 | 0.00 | 78 | 1015.1 |
| 20260508203751 | 58 | 135 | 2.0 | 3.0 | 0.00 | 0.00 | 0.00 | 78 | 1015.1 |
| 20260508203252 | 58 | 96 | 2.0 | 2.0 | 0.00 | 0.00 | 0.00 | 76 | 1015.1 |
| 20260508202758 | 59 | 71 | 0.0 | 0.0 | 0.00 | 0.00 | 0.00 | 75 | 1015.1 |
| 20260508202254 | 59 | 71 | 0.0 | 1.0 | 0.00 | 0.00 | 0.00 | 74 | 1015.1 |
| 20260508201751 | 59 | 71 | 0.0 | 2.0 | 0.00 | 0.00 | 0.00 | 73 | 1015.0 |
| 20260508201252 | 59 | 71 | 0.0 | 3.0 | 0.00 | 0.00 | 0.00 | 73 | 1015.0 |
| 20260508200752 | 60 | 88 | 1.0 | 3.0 | 0.00 | 0.00 | 0.00 | 72 | 1015.0 |
| 20260508200254 | 60 | 69 | 0.0 | 3.0 | 0.00 | 0.00 | 0.00 | 72 | 1014.9 |
| 20260508195751 | 61 | 279 | 0.0 | 2.0 | 0.00 | 0.00 | 0.00 | 71 | 1014.9 |
| 20260508195254 | 61 | 279 | 1.0 | 3.0 | 0.00 | 0.00 | 0.00 | 69 | 1014.8 |
| 20260508194751 | 62 | 68 | 0.0 | 5.0 | 0.00 | 0.00 | 0.00 | 66 | 1014.7 |
| 20260508194254 | 62 | 66 | 2.0 | 4.0 | 0.00 | 0.00 | 0.00 | 67 | 1014.7 |
| 20260508193751 | 62 | 69 | 1.0 | 6.0 | 0.00 | 0.00 | 0.00 | 67 | 1014.7 |
| 20260508193251 | 62 | 83 | 4.0 | 8.0 | 0.00 | 0.00 | 0.00 | 66 | 1014.6 |
| 20260508192800 | 62 | 76 | 5.0 | 8.0 | 0.00 | 0.00 | 0.00 | 66 | 1014.4 |
| 20260508192257 | 62 | 80 | 5.0 | 8.0 | 0.00 | 0.00 | 0.00 | 66 | 1014.3 |
| 20260508191752 | 62 | 86 | 3.0 | 7.0 | 0.00 | 0.00 | 0.00 | 67 | 1014.2 |
| 20260508191257 | 62 | 77 | 4.0 | 8.0 | 0.00 | 0.00 | 0.00 | 67 | 1014.1 |
| 20260508190754 | 62 | 81 | 5.0 | 8.0 | 0.00 | 0.00 | 0.00 | 67 | 1014.1 |
| 20260508190251 | 62 | 59 | 3.0 | 7.0 | 0.00 | 0.00 | 0.00 | 68 | 1014.0 |
| 20260508185800 | 62 | 76 | 4.0 | 7.0 | 0.00 | 0.00 | 0.00 | 69 | 1014.0 |
| 20260508185257 | 62 | 77 | 3.0 | 7.0 | 0.00 | 0.00 | 0.00 | 68 | 1013.8 |
| 20260508184754 | 62 | 84 | 7.0 | 8.0 | 0.00 | 0.00 | 0.00 | 69 | 1013.6 |
| 20260508184257 | 62 | 85 | 7.0 | 8.0 | 0.00 | 0.00 | 0.00 | 70 | 1013.5 |
| 20260508183754 | 62 | 85 | 5.0 | 8.0 | 0.00 | 0.00 | 0.00 | 70 | 1013.5 |
| 20260508183300 | 63 | 94 | 6.0 | 8.0 | 0.00 | 0.00 | 0.00 | 70 | 1013.4 |
| 20260508182754 | 63 | 83 | 5.0 | 9.0 | 0.00 | 0.00 | 0.00 | 69 | 1013.4 |
| 20260508182253 | 64 | 67 | 6.0 | 7.0 | 0.00 | 0.00 | 0.00 | 69 | 1013.3 |
| 20260508181751 | 64 | 57 | 4.0 | 6.0 | 0.00 | 0.00 | 0.00 | 69 | 1013.2 |
| 20260508181255 | 64 | 47 | 4.0 | 6.0 | 0.00 | 0.00 | 0.00 | 69 | 1013.2 |
| 20260508180757 | 64 | 17 | 5.0 | 5.0 | 0.00 | 0.00 | 0.00 | 69 | 1013.2 |
| 20260508180251 | 64 | 355 | 2.0 | 6.0 | 0.00 | 0.00 | 0.00 | 69 | 1013.1 |
| 20260508175751 | 64 | 342 | 4.0 | 5.0 | 0.00 | 0.00 | 0.00 | 70 | 1013.0 |
| 20260508175251 | 64 | 74 | 3.0 | 6.0 | 0.00 | 0.00 | 0.00 | 70 | 1013.0 |
| 20260508174751 | 64 | 65 | 2.0 | 7.0 | 0.00 | 0.00 | 0.00 | 70 | 1013.0 |
| 20260508174251 | 64 | 39 | 4.0 | 7.0 | 0.00 | 0.00 | 0.00 | 69 | 1012.9 |
| 20260508173751 | 65 | 11 | 3.0 | 8.0 | 0.00 | 0.00 | 0.00 | 69 | 1012.9 |
| 20260508173254 | 65 | 355 | 6.0 | 9.0 | 0.00 | 0.00 | 0.00 | 69 | 1012.8 |
| 20260508172751 | 65 | 35 | 4.0 | 7.0 | 0.00 | 0.00 | 0.00 | 70 | 1012.8 |
| 20260508172257 | 65 | 32 | 3.0 | 5.0 | 0.00 | 0.00 | 0.00 | 70 | 1012.8 |
| 20260508171755 | 65 | 34 | 3.0 | 6.0 | 0.00 | 0.00 | 0.00 | 70 | 1012.8 |
| 20260508171257 | 65 | 29 | 4.0 | 6.0 | 0.00 | 0.00 | 0.00 | 69 | 1012.7 |
| 20260508170751 | 65 | 47 | 3.0 | 6.0 | 0.00 | 0.00 | 0.00 | 69 | 1012.7 |
| 20260508170251 | 65 | 23 | 2.0 | 9.0 | 0.00 | 0.00 | 0.00 | 69 | 1012.6 |
| 20260508165751 | 65 | 0 | 2.0 | 9.0 | 0.00 | 0.00 | 0.00 | 69 | 1012.5 |
| 20260508165251 | 65 | 37 | 6.0 | 8.0 | 0.00 | 0.00 | 0.00 | 69 | 1012.4 |
| 20260508164754 | 65 | 29 | 3.0 | 10.0 | 0.00 | 0.00 | 0.00 | 68 | 1012.5 |
| 20260508164254 | 66 | 19 | 5.0 | 8.0 | 0.00 | 0.00 | 0.00 | 68 | 1012.5 |
| 20260508163800 | 66 | 26 | 5.0 | 9.0 | 0.00 | 0.00 | 0.00 | 68 | 1012.4 |
| 20260508163255 | 66 | 24 | 4.0 | 8.0 | 0.00 | 0.00 | 0.00 | 68 | 1012.3 |
| 20260508162751 | 66 | 348 | 5.0 | 6.0 | 0.00 | 0.00 | 0.00 | 69 | 1012.3 |
| 20260508162251 | 66 | 50 | 4.0 | 8.0 | 0.00 | 0.00 | 0.00 | 69 | 1012.3 |
| 20260508161754 | 66 | 69 | 4.0 | 7.0 | 0.00 | 0.00 | 0.00 | 68 | 1012.3 |
| 20260508161254 | 66 | 44 | 6.0 | 10.0 | 0.00 | 0.00 | 0.00 | 68 | 1012.2 |
| 20260508160754 | 66 | 51 | 4.0 | 11.0 | 0.00 | 0.00 | 0.00 | 68 | 1012.2 |
| 20260508160254 | 66 | 35 | 4.0 | 11.0 | 0.00 | 0.00 | 0.00 | 67 | 1012.2 |
| 20260508155758 | 66 | 89 | 3.0 | 13.0 | 0.00 | 0.00 | 0.00 | 68 | 1012.1 |
| 20260508155254 | 66 | 342 | 4.0 | 10.0 | 0.00 | 0.00 | 0.00 | 67 | 1012.1 |
| 20260508154754 | 66 | 32 | 5.0 | 14.0 | 0.00 | 0.00 | 0.00 | 68 | 1012.0 |
| 20260508154257 | 66 | 51 | 5.0 | 10.0 | 0.00 | 0.00 | 0.00 | 68 | 1012.0 |
| 20260508153751 | 66 | 50 | 3.0 | 12.0 | 0.00 | 0.00 | 0.00 | 67 | 1012.0 |
| 20260508153254 | 66 | 54 | 9.0 | 13.0 | 0.00 | 0.00 | 0.00 | 66 | 1012.0 |
| 20260508152751 | 67 | 28 | 8.0 | 11.0 | 0.00 | 0.00 | 0.00 | 69 | 1012.1 |
| 20260508152251 | 66 | 41 | 3.0 | 11.0 | 0.00 | 0.00 | 0.00 | 68 | 1012.1 |
| 20260508151751 | 66 | 38 | 6.0 | 12.0 | 0.00 | 0.00 | 0.00 | 68 | 1012.1 |
| 20260508151251 | 66 | 60 | 6.0 | 15.0 | 0.00 | 0.00 | 0.00 | 67 | 1012.1 |
| 20260508150757 | 66 | 69 | 5.0 | 14.0 | 0.00 | 0.00 | 0.00 | 66 | 1012.1 |
| 20260508150251 | 67 | 40 | 7.0 | 8.0 | 0.00 | 0.00 | 0.00 | 68 | 1012.0 |
| 20260508145751 | 67 | 69 | 2.0 | 10.0 | 0.00 | 0.00 | 0.00 | 68 | 1012.1 |
| 20260508145257 | 66 | 5 | 9.0 | 12.0 | 0.00 | 0.00 | 0.00 | 67 | 1012.1 |
| 20260508144751 | 66 | 355 | 2.0 | 9.0 | 0.00 | 0.00 | 0.00 | 68 | 1012.1 |
| 20260508144257 | 66 | 30 | 9.0 | 12.0 | 0.00 | 0.00 | 0.00 | 67 | 1012.1 |
| 20260508143751 | 66 | 42 | 3.0 | 13.0 | 0.00 | 0.00 | 0.00 | 66 | 1012.1 |
| 20260508143300 | 66 | 69 | 8.0 | 14.0 | 0.00 | 0.00 | 0.00 | 66 | 1012.3 |
| 20260508142754 | 66 | 61 | 11.0 | 12.0 | 0.00 | 0.00 | 0.00 | 65 | 1012.2 |
| 20260508142251 | 66 | 339 | 10.0 | 14.0 | 0.00 | 0.00 | 0.00 | 66 | 1012.3 |
| 20260508141751 | 67 | 52 | 11.0 | 14.0 | 0.00 | 0.00 | 0.00 | 64 | 1012.3 |
| 20260508141257 | 68 | 82 | 7.0 | 11.0 | 0.00 | 0.00 | 0.00 | 65 | 1012.3 |
| 20260508140751 | 68 | 307 | 2.0 | 9.0 | 0.00 | 0.00 | 0.00 | 66 | 1012.2 |
| 20260508140257 | 67 | 74 | 0.0 | 12.0 | 0.00 | 0.00 | 0.00 | 69 | 1012.3 |
| 20260508135800 | 67 | 48 | 7.0 | 14.0 | 0.00 | 0.00 | 0.00 | 64 | 1012.3 |
| 20260508135254 | 67 | 348 | 6.0 | 13.0 | 0.00 | 0.00 | 0.00 | 65 | 1012.3 |
| 20260508134800 | 67 | 61 | 8.0 | 13.0 | 0.00 | 0.00 | 0.00 | 65 | 1012.3 |
| 20260508134255 | 67 | 350 | 6.0 | 12.0 | 0.00 | 0.00 | 0.00 | 65 | 1012.4 |
| 20260508133751 | 67 | 340 | 5.0 | 10.0 | 0.00 | 0.00 | 0.00 | 66 | 1012.3 |
| 20260508133257 | 67 | 336 | 8.0 | 12.0 | 0.00 | 0.00 | 0.00 | 65 | 1012.4 |
| 20260508132754 | 66 | 325 | 9.0 | 11.0 | 0.00 | 0.00 | 0.00 | 67 | 1012.4 |
| 20260508132254 | 66 | 338 | 9.0 | 11.0 | 0.00 | 0.00 | 0.00 | 65 | 1012.4 |
| 20260508131751 | 66 | 317 | 9.0 | 11.0 | 0.00 | 0.00 | 0.00 | 66 | 1012.4 |
| 20260508131251 | 66 | 347 | 10.0 | 12.0 | 0.00 | 0.00 | 0.00 | 66 | 1012.4 |
| 20260508130754 | 66 | 343 | 5.0 | 10.0 | 0.00 | 0.00 | 0.00 | 67 | 1012.4 |
| 20260508130257 | 66 | 329 | 9.0 | 12.0 | 0.00 | 0.00 | 0.00 | 67 | 1012.4 |
| 20260508125754 | 66 | 17 | 5.0 | 10.0 | 0.00 | 0.00 | 0.00 | 67 | 1012.3 |
| 20260508125254 | 66 | 17 | 11.0 | 12.0 | 0.00 | 0.00 | 0.00 | 67 | 1012.4 |
| 20260508124754 | 66 | 28 | 6.0 | 12.0 | 0.00 | 0.00 | 0.00 | 66 | 1012.4 |
| 20260508124300 | 66 | 34 | 4.0 | 12.0 | 0.00 | 0.00 | 0.00 | 66 | 1012.4 |
| 20260508123754 | 66 | 24 | 4.0 | 9.0 | 0.00 | 0.00 | 0.00 | 66 | 1012.3 |
| 20260508123257 | 66 | 342 | 4.0 | 10.0 | 0.00 | 0.00 | 0.00 | 66 | 1012.5 |
| 20260508122754 | 66 | 51 | 6.0 | 11.0 | 0.00 | 0.00 | 0.00 | 66 | 1012.4 |
| 20260508122254 | 66 | 12 | 7.0 | 14.0 | 0.00 | 0.00 | 0.00 | 67 | 1012.4 |
| 20260508121800 | 66 | 351 | 5.0 | 12.0 | 0.00 | 0.00 | 0.00 | 66 | 1012.4 |
| 20260508121254 | 66 | 0 | 9.0 | 12.0 | 0.00 | 0.00 | 0.00 | 65 | 1012.3 |
| 20260508120752 | 66 | 38 | 3.0 | 10.0 | 0.00 | 0.00 | 0.00 | 66 | 1012.3 |
| 20260508120254 | 66 | 32 | 6.0 | 12.0 | 0.00 | 0.00 | 0.00 | 65 | 1012.2 |
| 20260508115754 | 67 | 0 | 4.0 | 12.0 | 0.00 | 0.00 | 0.00 | 65 | 1012.2 |
| 20260508115251 | 67 | 341 | 5.0 | 11.0 | 0.00 | 0.00 | 0.00 | 65 | 1012.2 |
| 20260508114754 | 66 | 323 | 5.0 | 11.0 | 0.00 | 0.00 | 0.00 | 65 | 1012.2 |
| 20260508114254 | 66 | 355 | 9.0 | 13.0 | 0.00 | 0.00 | 0.00 | 63 | 1012.2 |
| 20260508113752 | 66 | 342 | 11.0 | 15.0 | 0.00 | 0.00 | 0.00 | 62 | 1012.3 |
| 20260508113251 | 66 | 320 | 9.0 | 15.0 | 0.00 | 0.00 | 0.00 | 63 | 1012.2 |
| 20260508112751 | 66 | 5 | 5.0 | 13.0 | 0.00 | 0.00 | 0.00 | 64 | 1012.2 |
| 20260508112251 | 66 | 50 | 5.0 | 12.0 | 0.00 | 0.00 | 0.00 | 63 | 1012.2 |
| 20260508111757 | 66 | 14 | 7.0 | 12.0 | 0.00 | 0.00 | 0.00 | 63 | 1012.2 |
| 20260508111254 | 66 | 27 | 9.0 | 14.0 | 0.00 | 0.00 | 0.00 | 62 | 1012.0 |
| 20260508110757 | 66 | 355 | 12.0 | 12.0 | 0.00 | 0.00 | 0.00 | 63 | 1012.1 |
| 20260508110251 | 66 | 342 | 3.0 | 13.0 | 0.00 | 0.00 | 0.00 | 62 | 1012.1 |
| 20260508105754 | 66 | 27 | 8.0 | 15.0 | 0.00 | 0.00 | 0.00 | 62 | 1012.1 |
| 20260508105254 | 66 | 323 | 10.0 | 17.0 | 0.00 | 0.00 | 0.00 | 61 | 1012.1 |
| 20260508104751 | 66 | 323 | 12.0 | 16.0 | 0.00 | 0.00 | 0.00 | 61 | 1012.1 |
| 20260508104257 | 66 | 342 | 4.0 | 14.0 | 0.00 | 0.00 | 0.00 | 62 | 1012.2 |
| 20260508103751 | 66 | 5 | 12.0 | 12.0 | 0.00 | 0.00 | 0.00 | 62 | 1012.1 |
| 20260508103254 | 66 | 306 | 4.0 | 12.0 | 0.00 | 0.00 | 0.00 | 61 | 1012.2 |
| 20260508102754 | 66 | 46 | 4.0 | 17.0 | 0.00 | 0.00 | 0.00 | 61 | 1012.1 |
| 20260508102251 | 66 | 345 | 5.0 | 16.0 | 0.00 | 0.00 | 0.00 | 61 | 1012.2 |
| 20260508101751 | 66 | 342 | 5.0 | 13.0 | 0.00 | 0.00 | 0.00 | 62 | 1012.1 |
| 20260508101257 | 66 | 331 | 6.0 | 15.0 | 0.00 | 0.00 | 0.00 | 60 | 1012.0 |
| 20260508100751 | 66 | 34 | 8.0 | 14.0 | 0.00 | 0.00 | 0.00 | 60 | 1012.0 |
| 20260508100251 | 66 | 318 | 1.0 | 14.0 | 0.00 | 0.00 | 0.00 | 62 | 1011.9 |
| 20260508095757 | 66 | 29 | 13.0 | 15.0 | 0.00 | 0.00 | 0.00 | 61 | 1011.8 |
| 20260508095254 | 66 | 31 | 10.0 | 13.0 | 0.00 | 0.00 | 0.00 | 62 | 1011.8 |
| 20260508094754 | 66 | 26 | 3.0 | 12.0 | 0.00 | 0.00 | 0.00 | 61 | 1011.8 |
| 20260508094257 | 66 | 37 | 4.0 | 14.0 | 0.00 | 0.00 | 0.00 | 61 | 1011.9 |
| 20260508093754 | 66 | 37 | 4.0 | 13.0 | 0.00 | 0.00 | 0.00 | 62 | 1011.8 |
| 20260508093250 | 66 | 346 | 11.0 | 12.0 | 0.00 | 0.00 | 0.00 | 62 | 1011.7 |
| 20260508092751 | 66 | 348 | 8.0 | 12.0 | 0.00 | 0.00 | 0.00 | 63 | 1011.7 |
| 20260508092256 | 66 | 58 | 7.0 | 14.0 | 0.00 | 0.00 | 0.00 | 62 | 1011.8 |
| 20260508091751 | 66 | 355 | 2.0 | 18.0 | 0.00 | 0.00 | 0.00 | 62 | 1011.8 |
| 20260508091254 | 66 | 331 | 8.0 | 16.0 | 0.00 | 0.00 | 0.00 | 65 | 1011.7 |
| 20260508090754 | 66 | 78 | 8.0 | 16.0 | 0.00 | 0.00 | 0.00 | 63 | 1011.7 |
| 20260508090254 | 66 | 326 | 4.0 | 15.0 | 0.00 | 0.00 | 0.00 | 63 | 1011.7 |
| 20260508085251 | 65 | 24 | 6.0 | 12.0 | 0.00 | 0.00 | 0.00 | 65 | 1011.6 |
| 20260508084757 | 65 | 27 | 9.0 | 12.0 | 0.00 | 0.00 | 0.00 | 67 | 1011.6 |
| 20260508084253 | 65 | 11 | 7.0 | 11.0 | 0.00 | 0.00 | 0.00 | 67 | 1011.5 |
| 20260508083754 | 65 | 67 | 11.0 | 13.0 | 0.00 | 0.00 | 0.00 | 67 | 1011.5 |
| 20260508083252 | 65 | 327 | 13.0 | 14.0 | 0.00 | 0.00 | 0.00 | 66 | 1011.5 |
| 20260508082753 | 65 | 78 | 9.0 | 18.0 | 0.00 | 0.00 | 0.00 | 66 | 1011.6 |
| 20260508082259 | 65 | 5 | 9.0 | 16.0 | 0.00 | 0.00 | 0.00 | 67 | 1011.7 |
| 20260508081750 | 65 | 5 | 9.0 | 16.0 | 0.00 | 0.00 | 0.00 | 66 | 1011.7 |
| 20260508081256 | 65 | 17 | 12.0 | 15.0 | 0.00 | 0.00 | 0.00 | 66 | 1011.6 |
| 20260508080750 | 65 | 321 | 10.0 | 14.0 | 0.00 | 0.00 | 0.00 | 65 | 1011.6 |
| 20260508080253 | 65 | 16 | 10.0 | 14.0 | 0.00 | 0.00 | 0.00 | 66 | 1011.6 |
| 20260508075750 | 64 | 355 | 8.0 | 18.0 | 0.00 | 0.00 | 0.00 | 65 | 1011.6 |
| 20260508075256 | 64 | 17 | 11.0 | 18.0 | 0.00 | 0.00 | 0.00 | 65 | 1011.6 |
| 20260508074753 | 64 | 329 | 9.0 | 16.0 | 0.00 | 0.00 | 0.00 | 67 | 1011.6 |
| 20260508074256 | 64 | 309 | 7.0 | 16.0 | 0.00 | 0.00 | 0.00 | 66 | 1011.6 |
| 20260508073751 | 64 | 334 | 4.0 | 12.0 | 0.00 | 0.00 | 0.00 | 67 | 1011.7 |
| 20260508073300 | 63 | 26 | 9.0 | 12.0 | 0.00 | 0.00 | 0.00 | 67 | 1011.6 |
| 20260508072753 | 63 | 55 | 3.0 | 17.0 | 0.00 | 0.00 | 0.00 | 67 | 1011.6 |
| 20260508072253 | 63 | 355 | 9.0 | 15.0 | 0.00 | 0.00 | 0.00 | 67 | 1011.5 |
| 20260508071753 | 63 | 21 | 10.0 | 13.0 | 0.00 | 0.00 | 0.00 | 68 | 1011.4 |
| 20260508071253 | 63 | 17 | 5.0 | 13.0 | 0.00 | 0.00 | 0.00 | 69 | 1011.4 |
| 20260508070750 | 63 | 0 | 6.0 | 14.0 | 0.00 | 0.00 | 0.00 | 69 | 1011.4 |
| 20260508070300 | 63 | 11 | 7.0 | 13.0 | 0.00 | 0.00 | 0.00 | 70 | 1011.5 |
| 20260508065753 | 62 | 5 | 12.0 | 12.0 | 0.00 | 0.00 | 0.00 | 69 | 1011.5 |
| 20260508065257 | 62 | 57 | 5.0 | 17.0 | 0.00 | 0.00 | 0.00 | 70 | 1011.4 |
| 20260508064750 | 62 | 0 | 8.0 | 12.0 | 0.00 | 0.00 | 0.00 | 70 | 1011.4 |
| 20260508064253 | 62 | 350 | 5.0 | 14.0 | 0.00 | 0.00 | 0.00 | 70 | 1011.4 |
| 20260508063750 | 62 | 324 | 6.0 | 12.0 | 0.00 | 0.00 | 0.00 | 71 | 1011.4 |
| 20260508063253 | 62 | 24 | 13.0 | 13.0 | 0.00 | 0.00 | 0.00 | 71 | 1011.4 |
| 20260508062750 | 62 | 24 | 8.0 | 12.0 | 0.00 | 0.00 | 0.00 | 72 | 1011.4 |
| 20260508062254 | 61 | 32 | 4.0 | 13.0 | 0.00 | 0.00 | 0.00 | 72 | 1011.5 |
| 20260508061750 | 61 | 37 | 6.0 | 11.0 | 0.00 | 0.00 | 0.00 | 73 | 1011.5 |
| 20260508061250 | 61 | 10 | 5.0 | 11.0 | 0.00 | 0.00 | 0.00 | 73 | 1011.4 |
| 20260508060750 | 61 | 52 | 6.0 | 10.0 | 0.00 | 0.00 | 0.00 | 74 | 1011.4 |
| 20260508060250 | 60 | 17 | 3.0 | 11.0 | 0.00 | 0.00 | 0.00 | 75 | 1011.3 |
| 20260508055800 | 60 | 28 | 3.0 | 12.0 | 0.00 | 0.00 | 0.00 | 75 | 1011.3 |
| 20260508055250 | 60 | 49 | 3.0 | 12.0 | 0.00 | 0.00 | 0.00 | 75 | 1011.3 |
| 20260508054754 | 60 | 42 | 4.0 | 9.0 | 0.00 | 0.00 | 0.00 | 76 | 1011.3 |
| 20260508054254 | 60 | 38 | 3.0 | 11.0 | 0.00 | 0.00 | 0.00 | 76 | 1011.3 |
| 20260508053758 | 59 | 42 | 5.0 | 10.0 | 0.00 | 0.00 | 0.00 | 76 | 1011.3 |
| 20260508053250 | 59 | 61 | 5.0 | 9.0 | 0.00 | 0.00 | 0.00 | 76 | 1011.3 |
| 20260508052750 | 59 | 47 | 4.0 | 13.0 | 0.00 | 0.00 | 0.00 | 76 | 1011.3 |
| 20260508052256 | 59 | 44 | 9.0 | 12.0 | 0.00 | 0.00 | 0.00 | 76 | 1011.3 |
| 20260508051750 | 59 | 51 | 5.0 | 13.0 | 0.00 | 0.00 | 0.00 | 76 | 1011.3 |